Time,TemperatureF,DewpointF,PressureIn,WindDirection,WindDirectionDegrees,WindSpeedMPH,WindSpeedGustMPH,Humidity,HourlyPrecipIn,Conditions,Clouds,dailyrainin,SolarRadiationWatts/m^2,SoftwareType,DateUTC
2013-06-30 00:00:00,64.0,60.0,-100.00,West,270,1.0,-999.0,86,-99.99,,,-99.99,0.000000,,2013-06-30 04:00:00,
2013-06-30 00:43:00,64.0,60.0,-100.00,West,270,1.0,-999.0,86,-99.99,,,-99.99,0.000000,,2013-06-30 04:43:00,
2013-06-30 00:53:00,64.0,60.0,-100.00,West,270,1.0,-999.0,86,-99.99,,,-99.99,0.000000,,2013-06-30 04:53:00,
2013-06-30 01:00:00,64.0,59.0,-100.00,West,270,0.0,-999.0,84,-99.99,,,-99.99,0.000000,,2013-06-30 05:00:00,
2013-06-30 01:34:00,64.0,59.0,-100.00,West,270,0.0,-999.0,84,-99.99,,,-99.99,0.000000,,2013-06-30 05:34:00,
2013-06-30 01:43:00,64.0,59.0,-100.00,West,270,0.0,-999.0,84,-99.99,,,-99.99,0.000000,,2013-06-30 05:43:00,
2013-06-30 01:53:00,64.0,59.0,-100.00,West,270,0.0,-999.0,84,-99.99,,,-99.99,0.000000,,2013-06-30 05:53:00,
2013-06-30 03:00:00,63.0,59.0,-100.00,WSW,247,0.0,-999.0,85,-99.99,,,-99.99,0.000000,,2013-06-30 07:00:00,
2013-06-30 03:44:00,63.0,59.0,-100.00,WSW,247,0.0,-999.0,85,-99.99,,,-99.99,0.000000,,2013-06-30 07:44:00,
2013-06-30 03:53:00,63.0,59.0,-100.00,WSW,247,0.0,-999.0,85,-99.99,,,-99.99,0.000000,,2013-06-30 07:53:00,
2013-06-30 04:00:00,63.0,58.0,-100.00,West,270,1.0,-999.0,82,-99.99,,,-99.99,0.000000,,2013-06-30 08:00:00,
2013-06-30 04:42:00,63.0,58.0,-100.00,West,270,1.0,-999.0,82,-99.99,,,-99.99,0.000000,,2013-06-30 08:42:00,
2013-06-30 04:53:00,63.0,58.0,-100.00,West,270,1.0,-999.0,82,-99.99,,,-99.99,0.000000,,2013-06-30 08:53:00,
2013-06-30 05:00:00,63.0,58.0,-100.00,West,270,3.0,-999.0,81,-99.99,,,-99.99,0.000000,,2013-06-30 09:00:00,
2013-06-30 05:43:00,63.0,58.0,-100.00,West,270,3.0,-999.0,81,-99.99,,,-99.99,0.000000,,2013-06-30 09:43:00,
2013-06-30 05:53:00,63.0,58.0,-100.00,West,270,3.0,-999.0,81,-99.99,,,-99.99,0.000000,,2013-06-30 09:53:00,
2013-06-30 06:00:00,63.0,57.0,-100.00,WNW,292,4.0,-999.0,80,-99.99,,,-99.99,0.000000,,2013-06-30 10:00:00,
2013-06-30 06:34:00,63.0,57.0,-100.00,WNW,292,4.0,-999.0,80,-99.99,,,-99.99,0.000000,,2013-06-30 10:34:00,
2013-06-30 06:43:00,63.0,57.0,-100.00,WNW,292,4.0,-999.0,80,-99.99,,,-99.99,0.000000,,2013-06-30 10:43:00,
2013-06-30 06:53:00,63.0,57.0,-100.00,WNW,292,4.0,-999.0,80,-99.99,,,-99.99,0.000000,,2013-06-30 10:53:00,
2013-06-30 07:00:00,62.0,56.0,-100.00,WNW,292,5.0,-999.0,82,-99.99,,,-99.99,9.280000,,2013-06-30 11:00:00,
2013-06-30 07:43:00,62.0,56.0,-100.00,WNW,292,5.0,-999.0,82,-99.99,,,-99.99,9.280000,,2013-06-30 11:43:00,
2013-06-30 07:53:00,62.0,56.0,-100.00,WNW,292,5.0,-999.0,82,-99.99,,,-99.99,9.280000,,2013-06-30 11:53:00,
2013-06-30 08:00:00,63.0,56.0,-100.00,WNW,292,5.0,-999.0,77,-99.99,,,-99.99,66.120003,,2013-06-30 12:00:00,
2013-06-30 08:43:00,63.0,56.0,-100.00,WNW,292,5.0,-999.0,77,-99.99,,,-99.99,66.120003,,2013-06-30 12:43:00,
2013-06-30 08:52:00,63.0,56.0,-100.00,WNW,292,5.0,-999.0,77,-99.99,,,-99.99,66.120003,,2013-06-30 12:52:00,
2013-06-30 09:00:00,65.0,57.0,-100.00,West,270,3.0,-999.0,74,-99.99,,,-99.99,131.080002,,2013-06-30 13:00:00,
2013-06-30 09:44:00,65.0,57.0,-100.00,West,270,3.0,-999.0,74,-99.99,,,-99.99,131.080002,,2013-06-30 13:44:00,
2013-06-30 09:53:00,65.0,57.0,-100.00,West,270,3.0,-999.0,74,-99.99,,,-99.99,131.080002,,2013-06-30 13:53:00,
2013-06-30 10:00:00,67.0,57.0,-100.00,West,270,3.0,-999.0,72,-99.99,,,-99.99,151.960007,,2013-06-30 14:00:00,
2013-06-30 10:44:00,67.0,57.0,-100.00,West,270,3.0,-999.0,72,-99.99,,,-99.99,151.960007,,2013-06-30 14:44:00,
2013-06-30 10:52:00,67.0,57.0,-100.00,West,270,3.0,-999.0,72,-99.99,,,-99.99,151.960007,,2013-06-30 14:52:00,
2013-06-30 11:00:00,69.0,58.0,-100.00,West,270,2.0,-999.0,67,-99.99,,,-99.99,250.559998,,2013-06-30 15:00:00,
2013-06-30 11:44:00,69.0,58.0,-100.00,West,270,2.0,-999.0,67,-99.99,,,-99.99,250.559998,,2013-06-30 15:44:00,
2013-06-30 11:53:00,69.0,58.0,-100.00,West,270,2.0,-999.0,67,-99.99,,,-99.99,250.559998,,2013-06-30 15:53:00,
2013-06-30 13:00:00,74.0,62.0,-100.00,SSW,202,4.0,-999.0,67,-99.99,,,-99.99,559.119995,,2013-06-30 17:00:00,
2013-06-30 13:43:00,74.0,62.0,-100.00,SSW,202,4.0,-999.0,67,-99.99,,,-99.99,559.119995,,2013-06-30 17:43:00,
2013-06-30 13:53:00,74.0,62.0,-100.00,SSW,202,4.0,-999.0,67,-99.99,,,-99.99,559.119995,,2013-06-30 17:53:00,
2013-06-30 14:00:00,75.0,62.0,-100.00,SSW,202,6.0,-999.0,64,-99.99,,,-99.99,667.000000,,2013-06-30 18:00:00,
2013-06-30 14:43:00,75.0,62.0,-100.00,SSW,202,6.0,-999.0,64,-99.99,,,-99.99,667.000000,,2013-06-30 18:43:00,
2013-06-30 14:53:00,75.0,62.0,-100.00,SSW,202,6.0,-999.0,64,-99.99,,,-99.99,667.000000,,2013-06-30 18:53:00,
2013-06-30 15:00:00,73.0,62.0,-100.00,SSW,202,7.0,-999.0,66,-99.99,,,-99.99,619.440002,,2013-06-30 19:00:00,
2013-06-30 15:43:00,73.0,62.0,-100.00,SSW,202,7.0,-999.0,66,-99.99,,,-99.99,619.440002,,2013-06-30 19:43:00,
2013-06-30 15:53:00,73.0,62.0,-100.00,SSW,202,7.0,-999.0,66,-99.99,,,-99.99,619.440002,,2013-06-30 19:53:00,
2013-06-30 16:00:00,74.0,61.0,-100.00,SW,225,7.0,-999.0,63,-99.99,,,-99.99,597.400024,,2013-06-30 20:00:00,
2013-06-30 16:42:00,74.0,61.0,-100.00,SW,225,7.0,-999.0,63,-99.99,,,-99.99,597.400024,,2013-06-30 20:42:00,
2013-06-30 16:52:00,74.0,61.0,-100.00,SW,225,7.0,-999.0,63,-99.99,,,-99.99,597.400024,,2013-06-30 20:52:00,
2013-06-30 17:00:00,74.0,60.0,-100.00,SW,225,4.0,-999.0,61,-99.99,,,-99.99,266.799988,,2013-06-30 21:00:00,
2013-06-30 17:43:00,74.0,60.0,-100.00,SW,225,4.0,-999.0,61,-99.99,,,-99.99,266.799988,,2013-06-30 21:43:00,
2013-06-30 17:53:00,74.0,60.0,-100.00,SW,225,4.0,-999.0,61,-99.99,,,-99.99,266.799988,,2013-06-30 21:53:00,
2013-06-30 18:00:00,73.0,58.0,-100.00,WSW,247,7.0,-999.0,59,-99.99,,,-99.99,350.320007,,2013-06-30 22:00:00,
2013-06-30 18:43:00,73.0,58.0,-100.00,WSW,247,7.0,-999.0,59,-99.99,,,-99.99,350.320007,,2013-06-30 22:43:00,
2013-06-30 18:53:00,73.0,58.0,-100.00,WSW,247,7.0,-999.0,59,-99.99,,,-99.99,350.320007,,2013-06-30 22:53:00,
2013-06-30 20:00:00,71.0,58.0,-100.00,SW,225,3.0,-999.0,65,-99.99,,,-99.99,56.840000,,2013-07-01 00:00:00,
2013-06-30 20:33:00,71.0,58.0,-100.00,SW,225,3.0,-999.0,65,-99.99,,,-99.99,56.840000,,2013-07-01 00:33:00,
2013-06-30 20:42:00,71.0,58.0,-100.00,SW,225,3.0,-999.0,65,-99.99,,,-99.99,56.840000,,2013-07-01 00:42:00,
2013-06-30 20:52:00,71.0,58.0,-100.00,SW,225,3.0,-999.0,65,-99.99,,,-99.99,56.840000,,2013-07-01 00:52:00,
2013-06-30 22:00:00,68.0,57.0,-100.00,West,270,1.0,-999.0,67,-99.99,,,-99.99,3.480000,,2013-07-01 02:00:00,
2013-06-30 22:44:00,68.0,57.0,-100.00,West,270,1.0,-999.0,67,-99.99,,,-99.99,3.480000,,2013-07-01 02:44:00,
2013-06-30 22:54:00,68.0,57.0,-100.00,West,270,1.0,-999.0,67,-99.99,,,-99.99,3.480000,,2013-07-01 02:54:00,
2013-06-30 23:00:00,65.0,58.0,-100.00,SW,225,1.0,-999.0,78,-99.99,,,-99.99,0.000000,,2013-07-01 03:00:00,
2013-06-30 23:43:00,65.0,58.0,-100.00,SW,225,1.0,-999.0,78,-99.99,,,-99.99,0.000000,,2013-07-01 03:43:00,
2013-06-30 23:52:00,65.0,58.0,-100.00,SW,225,1.0,-999.0,78,-99.99,,,-99.99,0.000000,,2013-07-01 03:52:00,